Regional Weather Roundup
Issued by NWS State College, PA

Home | Current Version | Previous Version | Text Only | Print | Product List | Glossary On
Versions: 1 2 3 4 5 6 7 8 9 10 11 12 13 14 15 16 17 18 19 20 21 22 23 24 25 26 27 28 29 30 31 32 33 34 35 36 37 38 39 40 41 42 43 44 45 46 47 48 49 50
715
ASUS41 KCTP 102010
RWRCTP

REGIONAL WEATHER ROUNDUP
NATIONAL WEATHER SERVICE STATE COLLEGE PA
300 PM EST WED FEB 10 2016

Note: "fair" indicates few or no clouds below 12,000 feet with no
significant weather and/or obstructions to visibility.

* = STATION THAT DOES NOT REPORT PRECIPITATION /E.G. RAIN...SNOW...ETC/
    THUNDER OR FOG.

PAZ002>004-007>009-013>016-020>023-029>032-102100-
WESTERN PENNSYLVANIA

CITY           SKY/WX    TMP DP  RH WIND       PRES   REMARKS
ERIE           LGT SNOW  21  12  68 W21G30    29.78R WCI   5
MEADVILLE      LGT SNOW  20  12  71 W12       29.73R WCI   8
FRANKLIN*      CLOUDY    19  10  68 SW13G18   29.74R WCI   7
NEW CASTLE     LGT SNOW  21  16  81 W10       29.80R WCI  10
BEAVER COUNTY  LGT SNOW  21  14  73 W8        29.79S WCI  12
BUTLER*        CLOUDY    19  12  73 SW12G17   29.81F WCI   7
PITTSBURGH INT LGT SNOW  20  11  68 W9G20     29.80S WCI   9
PITTSBURGH     LGT SNOW  21  13  71 W16       29.80S WCI   7
INDIANA*       CLOUDY    19  14  79 W17       29.79S HAZE    WCI   4
LATROBE        LGT SNOW  19  14  79 MISG      29.82R
WASHINGTON CO* CLOUDY    19  12  73 SW14G20   29.83R VSB 1   WCI   6
$$

PAZ004>006-010>012-017>019-024>028-033>037-041-042-045-046-049>053-102100-
CENTRAL PENNSYLVANIA

CITY           SKY/WX    TMP DP  RH WIND       PRES   REMARKS
BRADFORD       LGT SNOW  19  13  77 SW10      29.62R WCI   7
DUBOIS         LGT SNOW  18  13  80 W20G26    29.68R WCI   2
CLEARFIELD     CLOUDY    22  11  62 W14G23    29.70R WCI   9
JOHNSTOWN      LGT SNOW  15   7  70 W17       29.68S WCI  -1
ALTOONA        CLOUDY    21   9  59 W16       29.73R WCI   7
STATE COLLEGE  CLOUDY    25  14  63 W12G22    29.71R WCI  14
WILLIAMSPORT   CLOUDY    30  18  60 W15       29.69R
SELINSGROVE    CLOUDY    30  15  53 W9        29.73R
FT INDIANTOWN  PTSUNNY   30  15  53 NW13G20   29.71S
CAPITAL CITY   CLOUDY    32  14  47 W14       29.74R
HARRISBURG     CLOUDY    31  16  54 W13G22    29.73S
YORK           CLOUDY    31  16  54 W10       29.74R
$$

PAZ038>040-043-044-047-048-054-055-060>062-067>071-102100-
EASTERN PENNSYLVANIA

CITY           SKY/WX    TMP DP  RH WIND       PRES   REMARKS
SCRANTON       CLOUDY    31  19  61 W13       29.62R
MOUNT POCONO   CLOUDY    27  16  63 W15G23    29.56R
ALLENTOWN      PTSUNNY   33  17  51 W12G26    29.67S
QUAKERTOWN*    NOT AVBL
READING        CLOUDY    32  16  51 W16       29.71R
LANCASTER      PTSUNNY   30  18  60 W17       29.73R
COATESVILLE    CLOUDY    30  21  69 NW22      29.72R
POTTSTOWN      CLOUDY    32  17  54 NW12G22   29.72R
BLUE BELL        N/A     32  19  59 NW6       29.70R
DOYLESTOWN     CLOUDY    32  18  56 NW10G22   29.67R
WILLOW GROVE   NOT AVBL
NORTH PHILA    CLOUDY    35  19  52 NW16G26   29.72R
PHILADELPHIA   CLOUDY    35  16  45 W15       29.73R
$$




USA.gov is the U.S. government's official web portal to all federal, state and local government web resources and services.